Location: Oklahoma City
(35.4680°N, 97.5160°W)
Time: 03:01:28
(UTC-05:00)

ISS - All Passes

Search period start: 25 August 2016 00:00
Search period end: 04 September 2016 00:00
Orbit: 402 x 406 km, 51.6° (Epoch: 25 August)

Date Brightness Start Highest point End Pass type
(mag) Time Alt. Az. Time Alt. Az. Time Alt. Az.
25 Aug - 10:00:07 10° SW 10:03:21 65° SE 10:06:37 10° NE daylight
25 Aug - 11:38:05 10° WNW 11:40:06 15° NNW 11:42:08 10° N daylight
25 Aug - 16:30:44 10° NNW 16:33:22 22° NNE 16:36:00 10° E daylight
25 Aug - 18:06:53 10° WNW 18:09:53 33° SW 18:12:51 10° SSE daylight
26 Aug - 09:08:10 10° SSW 09:11:03 29° SE 09:13:56 10° ENE daylight
26 Aug - 10:44:45 10° W 10:47:30 24° NNW 10:50:16 10° NNE daylight
26 Aug - 15:38:55 10° N 15:40:44 14° NNE 15:42:34 10° ENE daylight
26 Aug - 17:14:17 10° NW 17:17:33 77° SW 17:20:49 10° SE daylight
27 Aug - 08:17:01 10° SSE 08:18:49 14° SE 08:20:37 10° E daylight
27 Aug - 09:51:50 10° WSW 09:54:59 44° NW 09:58:09 10° NE daylight
27 Aug - 16:21:56 10° NW 16:25:08 49° NE 16:28:19 10° ESE daylight
27 Aug - 17:59:45 10° W 18:01:16 13° SW 18:02:46 10° SSW daylight
28 Aug - 08:59:16 10° SW 09:02:32 85° SE 09:05:50 10° NE daylight
28 Aug - 10:37:44 10° WNW 10:39:24 13° NNW 10:41:04 10° N daylight
28 Aug - 15:29:47 10° NNW 15:32:37 26° NE 15:35:26 10° E daylight
28 Aug - 17:06:13 10° WNW 17:09:02 26° SW 17:11:48 10° S daylight
29 Aug - 08:07:08 10° SSW 08:10:10 37° SE 08:13:14 10° ENE daylight
29 Aug - 09:44:11 10° W 09:46:43 20° NNW 09:49:17 10° NNE daylight
29 Aug - 14:37:50 10° NNW 14:39:58 16° NNE 14:42:07 10° ENE daylight
29 Aug - 16:13:28 10° NW 16:16:42 58° SW 16:19:54 10° SE daylight
30 Aug - 07:15:36 10° S 07:17:53 18° SE 07:20:11 10° E daylight
30 Aug - 08:51:05 10° WSW 08:54:08 35° NW 08:57:12 10° NNE daylight
30 Aug - 13:46:27 10° N 13:47:15 11° NNE 13:48:03 10° NE daylight
30 Aug - 15:21:00 10° NW 15:24:16 63° NE 15:27:30 10° ESE daylight
31 Aug - 07:58:22 10° SW 08:01:37 74° NW 08:04:54 10° NE daylight
31 Aug - 09:37:23 10° NW 09:38:35 11° NNW 09:39:47 10° N daylight
31 Aug - 14:28:45 10° NNW 14:31:44 31° NE 14:34:42 10° E daylight
31 Aug - 16:05:32 10° W 16:08:03 20° SW 16:10:33 10° S daylight
01 Sep - 07:06:02 10° SSW 07:09:11 49° SE 07:12:23 10° ENE daylight
01 Sep - 08:43:33 10° WNW 08:45:51 17° NNW 08:48:09 10° NNE daylight
01 Sep - 13:36:41 10° NNW 13:39:06 19° NNE 13:41:30 10° ENE daylight
01 Sep - 15:12:34 10° WNW 15:15:42 43° SW 15:18:49 10° SSE daylight
02 Sep - 06:14:13 10° S 06:16:50 22° SE 06:19:28 10° ENE visible
02 Sep - 07:50:16 10° W 07:53:11 29° NW 07:56:06 10° NNE daylight
02 Sep - 12:44:57 10° N 12:46:21 12° NNE 12:47:45 10° NE daylight
02 Sep - 14:19:58 10° NW 14:23:16 82° NE 14:26:33 10° SE daylight
03 Sep - 05:23:41 10° SE 05:24:33 11° SE 05:25:24 10° ESE visible
03 Sep - 06:57:23 10° WSW 07:00:36 57° NW 07:03:50 10° NE daylight
03 Sep - 08:37:20 10° NNW 08:37:40 10° NNW 08:38:00 10° NNW daylight
03 Sep - 13:27:37 10° NNW 13:30:44 38° NE 13:33:49 10° ESE daylight
03 Sep - 15:04:49 10° W 15:06:57 16° SW 15:09:04 10° S daylight
